contact:dominique.lefevre@mio.osupytheas.fr, maurice.libes@osupytheas.fr, didier.mallarino@osupytheas.fr
Project:EMSO http://www.emso-fr.org/EMSO-France
Depth: 2436.0 m
Title:EMSO Ligure Ouest : Data MII capteur AQUADOPP
Date,Latitude,Longitude,X_East,Y_North,Z_Up,Amplitude_X,Amplitude_Y,Amplitude_Z,Batterie,SoundSpeed,Heading,Pitch,Roll,Pressure,TIS,Speed,Direction
, degrees North, degrees East, m.s-1, m.s-1,m.s-1, 1, 1, 1, Volt, m.s-1, degree, degree, degree, dbar, degree_C, m.s-1, degree
2022-06-15T00:04:03,42.805,6.029,-0.031,0.001,-0.038,105.0,105.0,104.0,13.4,1505.2,324.1,-0.7,1.8,2470.825,13.28,0.031,271.8
2022-06-15T00:07:03,42.805,6.029,-0.013,-0.005,-0.027,105.0,104.0,102.0,13.3,1505.2,321.8,-0.8,1.8,2470.843,13.28,0.013,249.0
2022-06-15T00:10:03,42.805,6.029,-0.018,0.003,-0.005,106.0,105.0,102.0,13.4,1505.2,327.8,-0.8,1.8,2470.824,13.29,0.018,279.5
2022-06-15T00:13:03,42.805,6.029,-0.007,-0.008,-0.01,105.0,106.0,103.0,13.4,1505.2,329.5,-0.7,1.8,2470.858,13.29,0.01,221.2
2022-06-15T00:16:03,42.805,6.029,-0.029,-0.021,-0.029,106.0,106.0,102.0,13.3,1505.2,322.0,-0.7,1.8,2470.786,13.29,0.035,234.1
2022-06-15T00:19:03,42.805,6.029,0.003,-0.017,-0.014,105.0,105.0,102.0,13.3,1505.2,322.7,-0.7,1.8,2470.829,13.29,0.017,170.0
2022-06-15T00:22:03,42.805,6.029,-0.001,-0.01,-0.016,105.0,104.0,103.0,13.4,1505.2,321.8,-0.8,1.8,2470.792,13.29,0.01,185.7
2022-06-15T00:25:03,42.805,6.029,-0.008,0.018,-0.021,106.0,105.0,102.0,13.3,1505.2,327.2,-0.8,1.8,2470.792,13.29,0.019,336.0
2022-06-15T00:28:03,42.805,6.029,0.002,-0.003,-0.038,105.0,105.0,103.0,13.4,1505.2,323.5,-0.8,1.8,2470.809,13.29,0.003,146.3
2022-06-15T00:31:03,42.805,6.029,-0.006,-0.006,-0.026,106.0,105.0,103.0,13.4,1505.2,333.2,-0.7,1.8,2470.758,13.29,0.008,225.0
2022-06-15T00:34:03,42.805,6.029,-0.018,-0.011,-0.022,105.0,105.0,103.0,13.3,1505.2,331.8,-0.7,1.8,2470.798,13.29,0.021,238.6
2022-06-15T00:37:03,42.805,6.029,-0.013,-0.006,-0.005,105.0,105.0,102.0,13.4,1505.2,326.1,-0.7,1.8,2470.758,13.29,0.014,245.2
2022-06-15T00:40:03,42.805,6.029,-0.012,-0.011,-0.013,105.0,104.0,103.0,13.3,1505.2,325.3,-0.7,1.8,2470.792,13.29,0.016,227.5
2022-06-15T00:43:03,42.805,6.029,-0.017,-0.017,-0.008,105.0,104.0,102.0,13.3,1505.2,329.8,-0.8,1.8,2470.782,13.29,0.024,225.0
2022-06-15T00:46:03,42.805,6.029,-0.003,-0.031,-0.018,105.0,105.0,103.0,13.4,1505.2,327.2,-0.8,1.8,2470.783,13.29,0.031,185.5
2022-06-15T00:49:03,42.805,6.029,-0.022,-0.009,0.014,106.0,105.0,102.0,13.4,1505.2,320.1,-0.8,1.8,2470.777,13.29,0.023,247.8
2022-06-15T00:52:03,42.805,6.029,-0.014,-0.005,-0.007,105.0,105.0,103.0,13.4,1505.2,332.7,-0.8,1.8,2470.803,13.29,0.014,250.4
2022-06-15T00:55:03,42.805,6.029,-0.016,-0.008,-0.019,104.0,105.0,104.0,13.4,1505.2,328.9,-0.8,1.8,2470.762,13.29,0.017,243.4
2022-06-15T00:58:03,42.805,6.029,-0.019,-0.006,-0.035,104.0,103.0,103.0,13.4,1505.2,331.1,-0.7,1.8,2470.792,13.29,0.019,252.5
2022-06-15T02:04:03,42.805,6.029,0.006,-0.015,-0.05,105.0,105.0,102.0,13.4,1505.1,324.0,-0.8,1.8,2471.209,13.27,0.016,158.2
2022-06-15T02:07:03,42.805,6.029,-0.002,-0.016,-0.022,107.0,106.0,103.0,13.4,1505.2,327.2,-0.8,1.8,2471.128,13.28,0.016,187.1
2022-06-15T02:10:03,42.805,6.029,-0.012,-0.02,-0.043,106.0,106.0,103.0,13.4,1505.2,324.4,-0.8,1.8,2471.052,13.28,0.023,211.0
2022-06-15T02:13:03,42.805,6.029,-0.015,-0.005,-0.048,106.0,105.0,103.0,13.4,1505.2,323.8,-0.8,1.8,2470.977,13.28,0.015,251.6
2022-06-15T02:16:03,42.805,6.029,-0.013,0.006,-0.012,105.0,105.0,103.0,13.3,1505.2,321.9,-0.7,1.8,2470.948,13.28,0.014,294.8
2022-06-15T02:19:03,42.805,6.029,-0.013,-0.026,0.0,106.0,105.0,103.0,13.4,1505.2,325.8,-0.7,1.8,2470.88,13.28,0.029,206.6
2022-06-15T02:22:03,42.805,6.029,-0.008,-0.018,-0.032,105.0,104.0,104.0,13.4,1505.2,323.2,-0.7,1.8,2470.869,13.29,0.019,204.0
2022-06-15T02:25:03,42.805,6.029,-0.023,-0.008,-0.04,106.0,105.0,102.0,13.3,1505.2,328.5,-0.7,1.8,2470.852,13.29,0.024,250.8
2022-06-15T02:28:03,42.805,6.029,-0.012,-0.011,-0.039,105.0,104.0,103.0,13.4,1505.2,323.3,-0.7,1.8,2470.853,13.29,0.016,227.5
2022-06-15T02:31:03,42.805,6.029,-0.016,-0.003,-0.009,105.0,105.0,101.0,13.4,1505.2,322.1,-0.8,1.8,2470.817,13.29,0.016,259.4
2022-06-15T02:34:03,42.805,6.029,-0.034,-0.002,-0.018,106.0,105.0,103.0,13.4,1505.2,320.5,-0.8,1.8,2470.777,13.29,0.034,266.6
2022-06-15T02:37:03,42.805,6.029,-0.04,-0.007,-0.005,105.0,104.0,103.0,13.4,1505.2,331.9,-0.7,1.8,2470.79,13.29,0.04,260.1
2022-06-15T02:40:03,42.805,6.029,-0.026,-0.017,-0.001,106.0,106.0,103.0,13.4,1505.2,328.3,-0.8,1.8,2470.749,13.29,0.031,236.8
2022-06-15T02:43:03,42.805,6.029,-0.01,-0.001,-0.026,105.0,105.0,103.0,13.3,1505.2,324.1,-0.7,1.8,2470.76,13.29,0.01,264.3
2022-06-15T02:46:03,42.805,6.029,-0.023,-0.016,-0.032,108.0,105.0,102.0,13.4,1505.2,323.7,-0.8,1.8,2470.741,13.29,0.028,235.2
2022-06-15T02:49:03,42.805,6.029,-0.013,-0.023,-0.02,107.0,105.0,104.0,13.4,1505.2,327.9,-0.8,1.8,2470.752,13.29,0.026,209.5
2022-06-15T02:52:03,42.805,6.029,0.007,0.003,-0.013,105.0,105.0,103.0,13.4,1505.2,333.4,-0.7,1.8,2470.731,13.29,0.007,66.8
2022-06-15T02:55:03,42.805,6.029,-0.022,-0.013,-0.036,105.0,104.0,103.0,13.4,1505.2,328.9,-0.8,1.8,2470.719,13.29,0.025,239.4
2022-06-15T02:58:03,42.805,6.029,-0.019,0.003,-0.016,106.0,105.0,101.0,13.4,1505.2,330.1,-0.8,1.8,2470.78,13.29,0.019,279.0
2022-06-15T03:04:03,42.805,6.029,-0.02,0.0,-0.015,106.0,105.0,103.0,13.3,1505.2,329.5,-0.8,1.8,2470.799,13.28,0.02,270.0
2022-06-15T03:07:03,42.805,6.029,-0.007,-0.012,0.013,107.0,105.0,103.0,13.3,1505.2,321.3,-0.7,1.8,2470.78,13.28,0.013,210.3
2022-06-15T03:10:03,42.805,6.029,-0.008,-0.026,-0.013,106.0,106.0,102.0,13.4,1505.2,325.3,-0.8,1.8,2470.755,13.28,0.027,197.1
2022-06-15T03:13:03,42.805,6.029,-0.018,-0.008,-0.019,106.0,106.0,104.0,13.4,1505.2,328.7,-0.8,1.8,2470.776,13.28,0.019,246.0
2022-06-15T03:16:03,42.805,6.029,-0.001,-0.008,-0.025,105.0,105.0,103.0,13.4,1505.2,322.7,-0.7,1.8,2470.754,13.29,0.008,187.1
2022-06-15T03:19:03,42.805,6.029,-0.031,-0.027,-0.02,107.0,104.0,103.0,13.4,1505.2,325.2,-0.8,1.8,2470.796,13.29,0.041,228.9
2022-06-15T03:22:03,42.805,6.029,-0.019,-0.018,-0.013,106.0,105.0,103.0,13.4,1505.2,332.9,-0.7,1.8,2470.743,13.29,0.026,226.5
2022-06-15T03:25:03,42.805,6.029,-0.001,-0.004,-0.052,107.0,104.0,102.0,13.4,1505.2,327.9,-0.8,1.8,2470.724,13.29,0.004,194.0
2022-06-15T03:28:03,42.805,6.029,-0.03,-0.028,-0.043,106.0,105.0,104.0,13.4,1505.2,330.2,-0.7,1.8,2470.786,13.29,0.041,227.0
2022-06-15T03:31:03,42.805,6.029,0.0,-0.003,-0.007,107.0,106.0,103.0,13.4,1505.2,327.3,-0.8,1.8,2470.778,13.29,0.003,180.0
2022-06-15T03:34:03,42.805,6.029,0.002,-0.01,-0.034,105.0,106.0,104.0,13.4,1505.2,331.3,-0.7,1.8,2470.763,13.29,0.01,168.7
2022-06-15T03:37:03,42.805,6.029,-0.001,-0.007,-0.021,106.0,106.0,102.0,13.4,1505.2,322.7,-0.8,1.8,2470.746,13.29,0.007,188.1
2022-06-15T03:40:03,42.805,6.029,-0.035,-0.002,-0.004,106.0,106.0,103.0,13.4,1505.2,320.9,-0.7,1.8,2470.741,13.29,0.035,266.7
2022-06-15T03:43:03,42.805,6.029,-0.007,-0.008,0.012,106.0,104.0,102.0,13.4,1505.2,328.3,-0.8,1.8,2470.743,13.29,0.01,221.2
2022-06-15T03:46:03,42.805,6.029,-0.02,-0.025,-0.047,106.0,104.0,103.0,13.3,1505.2,324.6,-0.8,1.8,2470.782,13.29,0.032,218.7
2022-06-15T03:49:03,42.805,6.029,-0.019,0.004,-0.021,106.0,104.0,102.0,13.4,1505.2,325.5,-0.8,1.8,2470.803,13.29,0.019,281.9
2022-06-15T03:52:03,42.805,6.029,-0.026,-0.021,-0.017,107.0,106.0,103.0,13.4,1505.2,327.1,-0.7,1.8,2470.748,13.29,0.033,231.1
2022-06-15T03:55:03,42.805,6.029,-0.04,-0.004,-0.034,107.0,106.0,103.0,13.4,1505.2,323.2,-0.8,1.8,2470.809,13.29,0.04,264.3
2022-06-15T03:58:03,42.805,6.029,-0.007,-0.03,-0.028,105.0,108.0,103.0,13.4,1505.2,327.4,-0.7,1.8,2470.817,13.29,0.03,193.1
2022-06-15T04:04:03,42.805,6.029,-0.025,0.0,-0.025,106.0,106.0,103.0,13.4,1505.2,328.7,-0.8,1.8,2470.828,13.28,0.025,270.0
2022-06-15T04:07:03,42.805,6.029,-0.015,0.014,-0.009,108.0,106.0,104.0,13.4,1505.2,321.8,-0.8,1.8,2470.821,13.28,0.02,313.0
2022-06-15T04:10:03,42.805,6.029,-0.029,-0.01,-0.004,108.0,106.0,102.0,13.4,1505.2,326.5,-0.7,1.8,2470.85,13.28,0.03,251.0
2022-06-15T04:13:03,42.805,6.029,-0.022,-0.012,0.004,107.0,106.0,103.0,13.4,1505.2,325.5,-0.8,1.8,2470.844,13.28,0.025,241.4
2022-06-15T04:16:03,42.805,6.029,-0.022,-0.015,-0.035,107.0,106.0,102.0,13.3,1505.2,331.6,-0.8,1.8,2470.824,13.29,0.026,235.7
2022-06-15T04:19:03,42.805,6.029,-0.038,-0.007,-0.035,107.0,105.0,103.0,13.4,1505.2,326.0,-0.7,1.8,2470.807,13.29,0.038,259.6
2022-06-15T04:22:03,42.805,6.029,-0.016,-0.008,-0.025,107.0,106.0,102.0,13.3,1505.2,328.9,-0.7,1.8,2470.842,13.29,0.017,243.4
2022-06-15T04:25:03,42.805,6.029,-0.021,0.001,0.004,106.0,106.0,103.0,13.4,1505.2,326.7,-0.7,1.8,2470.826,13.29,0.021,272.7
2022-06-15T04:28:03,42.805,6.029,-0.045,-0.012,-0.018,106.0,105.0,103.0,13.4,1505.2,324.5,-0.8,1.8,2470.817,13.29,0.046,255.1
2022-06-15T04:31:03,42.805,6.029,-0.031,-0.01,-0.031,107.0,106.0,104.0,13.4,1505.2,321.3,-0.7,1.8,2470.849,13.29,0.032,252.1
2022-06-15T04:34:03,42.805,6.029,-0.041,-0.029,-0.032,107.0,107.0,104.0,13.4,1505.2,325.5,-0.8,1.8,2470.853,13.29,0.05,234.7
2022-06-15T04:37:03,42.805,6.029,-0.019,-0.009,-0.002,105.0,106.0,104.0,13.3,1505.2,332.5,-0.7,1.8,2470.843,13.29,0.021,244.7
2022-06-15T04:40:03,42.805,6.029,-0.016,-0.014,-0.045,107.0,106.0,103.0,13.4,1505.2,333.2,-0.7,1.8,2470.841,13.29,0.021,228.8
2022-06-15T04:43:03,42.805,6.029,-0.033,-0.011,-0.024,107.0,104.0,103.0,13.4,1505.2,332.9,-0.8,1.9,2470.789,13.29,0.034,251.6
2022-06-15T04:46:03,42.805,6.029,-0.019,-0.011,-0.013,108.0,105.0,103.0,13.4,1505.2,329.3,-0.8,1.8,2470.811,13.29,0.021,239.9
2022-06-15T04:49:03,42.805,6.029,-0.027,-0.015,-0.01,108.0,106.0,103.0,13.4,1505.2,326.6,-0.8,1.8,2470.845,13.29,0.03,240.9
2022-06-15T04:52:03,42.805,6.029,-0.008,-0.024,-0.035,107.0,106.0,104.0,13.3,1505.2,320.3,-0.8,1.8,2470.831,13.29,0.025,198.4
2022-06-15T04:55:03,42.805,6.029,-0.022,0.0,-0.044,108.0,105.0,103.0,13.4,1505.2,321.5,-0.8,1.8,2470.842,13.29,0.022,270.0
2022-06-15T04:58:03,42.805,6.029,-0.032,0.0,-0.017,106.0,106.0,103.0,13.4,1505.2,331.9,-0.7,1.8,2470.787,13.29,0.032,270.0
2022-06-15T05:04:03,42.805,6.029,-0.003,-0.023,-0.01,107.0,106.0,104.0,13.3,1505.2,321.3,-0.8,1.8,2470.881,13.28,0.023,187.4
2022-06-15T05:07:03,42.805,6.029,-0.025,0.001,-0.003,107.0,106.0,103.0,13.4,1505.2,323.8,-0.8,1.8,2470.886,13.28,0.025,272.3
2022-06-15T05:10:03,42.805,6.029,-0.029,0.005,-0.003,106.0,107.0,104.0,13.4,1505.2,333.2,-0.8,1.8,2470.854,13.28,0.029,279.8
2022-06-15T05:13:03,42.805,6.029,-0.018,0.0,-0.019,106.0,107.0,104.0,13.3,1505.2,328.6,-0.8,1.8,2470.871,13.28,0.018,270.0
2022-06-15T05:16:03,42.805,6.029,-0.021,-0.021,0.0,105.0,105.0,103.0,13.3,1505.2,326.0,-0.7,1.8,2470.893,13.28,0.029,225.0
2022-06-15T05:19:03,42.805,6.029,-0.044,-0.005,-0.025,106.0,106.0,103.0,13.4,1505.2,321.3,-0.7,1.8,2470.894,13.28,0.044,263.5
2022-06-15T05:22:03,42.805,6.029,-0.022,-0.013,-0.036,107.0,106.0,102.0,13.3,1505.2,327.0,-0.8,1.8,2470.878,13.29,0.025,239.4
2022-06-15T05:25:03,42.805,6.029,-0.029,-0.018,-0.017,106.0,105.0,104.0,13.4,1505.2,331.6,-0.7,1.8,2470.902,13.29,0.034,238.2
2022-06-15T05:28:03,42.805,6.029,-0.026,-0.015,-0.017,107.0,105.0,103.0,13.3,1505.2,321.6,-0.7,1.8,2470.867,13.29,0.03,240.0
2022-06-15T05:31:03,42.805,6.029,-0.042,-0.019,-0.021,106.0,106.0,103.0,13.4,1505.2,324.7,-0.8,1.8,2470.877,13.29,0.046,245.7
2022-06-15T05:34:03,42.805,6.029,-0.025,0.0,0.004,106.0,104.0,103.0,13.3,1505.2,324.6,-0.7,1.8,2470.908,13.29,0.025,270.0
2022-06-15T05:37:03,42.805,6.029,-0.041,-0.001,-0.029,106.0,106.0,103.0,13.4,1505.2,329.5,-0.7,1.8,2470.89,13.29,0.041,268.6
2022-06-15T05:40:03,42.805,6.029,-0.018,-0.012,-0.013,106.0,105.0,103.0,13.3,1505.2,324.4,-0.7,1.8,2470.854,13.29,0.021,236.3
2022-06-15T05:43:03,42.805,6.029,-0.034,-0.004,-0.05,106.0,106.0,103.0,13.4,1505.2,329.2,-0.8,1.8,2470.842,13.29,0.034,263.3
2022-06-15T05:46:03,42.805,6.029,-0.033,-0.005,0.0,106.0,105.0,103.0,13.4,1505.2,321.5,-0.8,1.8,2470.832,13.29,0.033,261.4
2022-06-15T05:49:03,42.805,6.029,-0.034,-0.009,-0.015,107.0,106.0,103.0,13.3,1505.2,320.1,-0.7,1.8,2470.896,13.29,0.035,255.2
2022-06-15T05:52:03,42.805,6.029,-0.001,-0.013,-0.003,107.0,106.0,103.0,13.3,1505.2,331.7,-0.8,1.9,2470.922,13.29,0.013,184.4
2022-06-15T05:55:03,42.805,6.029,-0.029,-0.02,-0.043,107.0,105.0,104.0,13.4,1505.2,328.0,-0.7,1.8,2470.87,13.29,0.035,235.4
2022-06-15T05:58:03,42.805,6.029,-0.018,-0.026,-0.05,106.0,105.0,102.0,13.4,1505.2,321.5,-0.7,1.8,2470.911,13.29,0.031,214.7
2022-06-15T06:04:03,42.805,6.029,-0.033,0.008,-0.012,106.0,106.0,103.0,13.3,1505.2,327.7,-0.8,1.8,2470.953,13.28,0.033,283.6
2022-06-15T06:07:03,42.805,6.029,-0.035,0.004,0.005,107.0,105.0,103.0,13.3,1505.2,324.4,-0.8,1.8,2470.935,13.28,0.035,276.5
2022-06-15T06:10:03,42.805,6.029,-0.019,0.006,-0.04,106.0,106.0,103.0,13.4,1505.2,323.7,-0.7,1.8,2470.937,13.28,0.019,287.5
2022-06-15T06:13:03,42.805,6.029,-0.02,-0.019,-0.025,107.0,106.0,103.0,13.4,1505.2,332.5,-0.8,1.8,2470.876,13.28,0.027,226.5
2022-06-15T06:16:03,42.805,6.029,-0.041,0.011,0.007,106.0,105.0,103.0,13.3,1505.2,328.3,-0.7,1.8,2470.899,13.29,0.042,285.0
2022-06-15T06:19:03,42.805,6.029,-0.041,-0.001,-0.011,106.0,103.0,103.0,13.3,1505.2,329.8,-0.7,1.8,2470.926,13.29,0.041,268.6
2022-06-15T06:22:03,42.805,6.029,-0.01,0.001,-0.009,106.0,105.0,102.0,13.4,1505.2,326.1,-0.8,1.8,2470.933,13.29,0.01,275.7
2022-06-15T06:25:03,42.805,6.029,-0.022,-0.017,-0.012,105.0,104.0,104.0,13.3,1505.2,321.7,-0.8,1.9,2470.928,13.29,0.027,232.3
2022-06-15T06:28:03,42.805,6.029,-0.05,0.024,-0.065,105.0,105.0,102.0,13.3,1505.2,332.0,-0.7,1.8,2470.895,13.29,0.055,295.6
2022-06-15T06:31:03,42.805,6.029,-0.017,0.001,-0.035,106.0,105.0,102.0,13.3,1505.2,321.8,-0.8,1.8,2470.907,13.29,0.017,273.4
2022-06-15T06:34:03,42.805,6.029,-0.022,-0.001,0.003,105.0,105.0,102.0,13.4,1505.2,326.7,-0.7,1.8,2470.949,13.29,0.022,267.4
2022-06-15T06:37:03,42.805,6.029,-0.047,-0.004,-0.007,106.0,106.0,101.0,13.4,1505.2,328.2,-0.7,1.8,2470.938,13.29,0.047,265.1
2022-06-15T06:40:03,42.805,6.029,-0.026,0.006,-0.021,105.0,106.0,102.0,13.3,1505.2,320.3,-0.7,1.8,2470.902,13.29,0.026,283.0
2022-06-15T06:43:03,42.805,6.029,-0.038,-0.01,-0.018,106.0,105.0,102.0,13.4,1505.2,323.1,-0.8,1.8,2470.882,13.29,0.039,255.3
2022-06-15T06:46:03,42.805,6.029,-0.06,0.015,0.003,107.0,105.0,103.0,13.4,1505.2,330.4,-0.7,1.8,2470.936,13.29,0.061,284.0
2022-06-15T06:49:03,42.805,6.029,-0.04,0.009,-0.012,107.0,105.0,102.0,13.4,1505.2,332.0,-0.8,1.8,2470.889,13.29,0.041,282.7
2022-06-15T06:52:03,42.805,6.029,-0.029,0.015,-0.016,107.0,104.0,103.0,13.3,1505.2,327.5,-0.8,1.8,2470.935,13.29,0.032,297.4
2022-06-15T06:55:03,42.805,6.029,-0.032,0.0,-0.015,107.0,105.0,103.0,13.4,1505.2,323.5,-0.8,1.8,2470.945,13.29,0.032,270.0
2022-06-15T06:58:03,42.805,6.029,-0.011,-0.006,-0.026,107.0,106.0,103.0,13.4,1505.2,322.1,-0.7,1.9,2470.919,13.29,0.012,241.4
2022-06-15T07:04:03,42.805,6.029,-0.023,0.0,-0.004,106.0,105.0,103.0,13.4,1505.2,324.2,-0.8,1.8,2470.987,13.28,0.023,270.0
2022-06-15T07:07:03,42.805,6.029,-0.032,0.0,0.0,107.0,105.0,103.0,13.4,1505.2,323.0,-0.7,1.8,2470.946,13.28,0.032,270.0
2022-06-15T07:10:03,42.805,6.029,-0.011,0.01,0.0,106.0,105.0,103.0,13.4,1505.2,324.8,-0.7,1.8,2470.941,13.28,0.014,312.3
2022-06-15T07:13:03,42.805,6.029,-0.036,0.015,0.008,106.0,105.0,103.0,13.4,1505.2,325.9,-0.7,1.8,2470.94,13.29,0.039,292.6
2022-06-15T07:16:03,42.805,6.029,-0.033,0.006,-0.024,107.0,108.0,103.0,13.4,1505.2,323.8,-0.8,1.8,2470.952,13.29,0.033,280.3
2022-06-15T07:19:03,42.805,6.029,-0.021,0.004,-0.009,105.0,105.0,102.0,13.4,1505.2,327.2,-0.8,1.8,2470.953,13.29,0.021,280.8
2022-06-15T07:22:03,42.805,6.029,-0.019,-0.001,-0.021,106.0,105.0,103.0,13.3,1505.2,326.1,-0.7,1.8,2470.973,13.29,0.019,267.0
2022-06-15T07:25:03,42.805,6.029,-0.021,0.009,-0.02,106.0,106.0,103.0,13.4,1505.2,325.3,-0.8,1.8,2470.942,13.29,0.022,293.2
2022-06-15T07:28:03,42.805,6.029,-0.019,0.0,-0.009,106.0,106.0,104.0,13.3,1505.2,326.1,-0.8,1.8,2470.903,13.29,0.019,270.0
2022-06-15T07:31:03,42.805,6.029,-0.022,0.009,-0.022,105.0,106.0,103.0,13.4,1505.2,326.4,-0.7,1.8,2470.953,13.29,0.023,292.2
2022-06-15T07:34:03,42.805,6.029,-0.036,0.007,-0.017,107.0,106.0,103.0,13.4,1505.2,325.3,-0.8,1.8,2470.908,13.29,0.036,281.0
2022-06-15T07:37:03,42.805,6.029,-0.029,0.009,-0.003,107.0,106.0,104.0,13.4,1505.2,327.4,-0.8,1.8,2470.902,13.29,0.03,287.2
2022-06-15T07:40:03,42.805,6.029,-0.043,0.023,0.002,107.0,107.0,102.0,13.4,1505.2,324.9,-0.8,1.8,2470.898,13.29,0.048,298.1
2022-06-15T07:43:03,42.805,6.029,0.005,0.003,0.002,107.0,104.0,103.0,13.4,1505.2,328.2,-0.8,1.8,2470.898,13.29,0.005,59.0
2022-06-15T07:46:03,42.805,6.029,-0.04,0.002,-0.02,106.0,105.0,103.0,13.3,1505.2,323.3,-0.8,1.8,2470.914,13.29,0.04,272.9
2022-06-15T07:49:03,42.805,6.029,-0.014,0.006,-0.021,105.0,104.0,102.0,13.3,1505.2,326.1,-0.8,1.8,2470.874,13.29,0.015,293.2
2022-06-15T07:52:03,42.805,6.029,-0.015,0.0,-0.034,106.0,105.0,103.0,13.4,1505.2,327.9,-0.7,1.8,2470.897,13.29,0.015,270.0
2022-06-15T07:55:03,42.805,6.029,-0.014,-0.006,-0.041,105.0,104.0,102.0,13.3,1505.2,326.8,-0.8,1.8,2470.901,13.29,0.015,246.8
2022-06-15T07:58:03,42.805,6.029,-0.022,0.0,-0.036,106.0,104.0,103.0,13.3,1505.2,327.2,-0.8,1.8,2470.903,13.29,0.022,270.0
2022-06-15T08:04:03,42.805,6.029,-0.019,0.021,-0.063,105.0,105.0,102.0,13.4,1505.2,328.2,-0.8,1.8,2470.974,13.28,0.028,317.9
2022-06-15T08:07:03,42.805,6.029,-0.008,-0.01,-0.032,106.0,106.0,103.0,13.4,1505.2,323.9,-0.8,1.8,2470.971,13.28,0.012,218.7
2022-06-15T08:10:03,42.805,6.029,0.0,-0.016,-0.013,106.0,106.0,102.0,13.4,1505.2,332.3,-0.8,1.8,2470.965,13.29,0.016,180.0
2022-06-15T08:13:03,42.805,6.029,-0.008,-0.001,-0.02,105.0,105.0,102.0,13.3,1505.2,321.5,-0.8,1.9,2470.98,13.29,0.008,262.9
2022-06-15T08:16:03,42.805,6.029,-0.015,0.008,-0.032,105.0,105.0,102.0,13.4,1505.2,321.1,-0.8,1.8,2470.958,13.29,0.017,298.1
2022-06-15T08:19:03,42.805,6.029,-0.018,0.002,0.002,104.0,106.0,103.0,13.3,1505.2,329.5,-0.8,1.8,2470.925,13.29,0.018,276.3
2022-06-15T08:22:03,42.805,6.029,-0.026,-0.003,-0.023,106.0,105.0,104.0,13.4,1505.2,323.5,-0.8,1.8,2470.93,13.29,0.026,263.4
2022-06-15T08:25:03,42.805,6.029,0.0,0.008,-0.024,106.0,104.0,103.0,13.4,1505.2,322.6,-0.8,1.8,2470.887,13.29,0.008,0.0
2022-06-15T08:28:03,42.805,6.029,-0.009,0.003,-0.026,105.0,105.0,105.0,13.4,1505.2,322.9,-0.8,1.8,2470.92,13.29,0.009,288.4
2022-06-15T08:31:03,42.805,6.029,-0.012,0.006,-0.011,106.0,106.0,102.0,13.4,1505.2,330.1,-0.7,1.8,2470.883,13.29,0.013,296.6
2022-06-15T08:34:03,42.805,6.029,-0.02,0.013,-0.039,104.0,107.0,103.0,13.4,1505.2,331.8,-0.7,1.8,2470.94,13.29,0.023,303.0
2022-06-15T08:37:03,42.805,6.029,-0.009,0.023,0.007,107.0,105.0,103.0,13.4,1505.2,328.7,-0.7,1.8,2470.94,13.29,0.024,338.6
2022-06-15T08:40:03,42.805,6.029,-0.027,-0.001,0.008,106.0,106.0,102.0,13.4,1505.2,322.1,-0.8,1.8,2470.859,13.29,0.027,267.9
2022-06-15T08:43:03,42.805,6.029,0.017,-0.018,0.007,107.0,105.0,102.0,13.3,1505.2,331.8,-0.8,1.8,2470.885,13.29,0.024,136.6
2022-06-15T08:46:03,42.805,6.029,-0.017,0.005,-0.035,107.0,105.0,102.0,13.4,1505.2,324.3,-0.7,1.8,2470.861,13.29,0.017,286.4
2022-06-15T08:49:03,42.805,6.029,-0.019,-0.008,-0.021,107.0,107.0,103.0,13.4,1505.2,325.3,-0.7,1.8,2470.884,13.29,0.02,247.2
2022-06-15T08:52:03,42.805,6.029,-0.038,0.01,0.007,107.0,105.0,103.0,13.4,1505.2,323.8,-0.8,1.8,2470.867,13.29,0.039,284.7
2022-06-15T08:55:03,42.805,6.029,-0.008,0.01,-0.019,106.0,105.0,102.0,13.4,1505.2,332.9,-0.8,1.8,2470.904,13.29,0.012,321.3
2022-06-15T08:58:03,42.805,6.029,-0.008,0.004,0.009,107.0,106.0,103.0,13.4,1505.2,328.5,-0.8,1.8,2470.914,13.29,0.008,296.6
2022-06-15T09:04:03,42.805,6.029,-0.018,-0.024,-0.019,106.0,106.0,103.0,13.4,1505.2,326.7,-0.7,1.8,2470.92,13.29,0.03,216.9
2022-06-15T09:07:03,42.805,6.029,-0.014,0.004,-0.025,107.0,104.0,104.0,13.4,1505.2,331.9,-0.7,1.8,2470.901,13.29,0.014,285.9
2022-06-15T09:10:03,42.805,6.029,0.011,-0.002,-0.016,105.0,105.0,103.0,13.4,1505.2,327.0,-0.7,1.8,2470.903,13.29,0.011,100.3
2022-06-15T09:13:03,42.805,6.029,0.0,-0.014,-0.027,107.0,104.0,103.0,13.4,1505.2,327.7,-0.7,1.8,2470.927,13.29,0.014,180.0
2022-06-15T09:16:03,42.805,6.029,0.004,0.009,0.0,105.0,105.0,103.0,13.4,1505.2,328.8,-0.7,1.8,2470.895,13.29,0.009,24.0
2022-06-15T09:19:03,42.805,6.029,-0.017,0.006,-0.008,105.0,105.0,105.0,13.4,1505.2,331.8,-0.8,1.9,2470.875,13.29,0.018,289.4
2022-06-15T09:22:03,42.805,6.029,-0.032,0.005,0.0,106.0,105.0,103.0,13.3,1505.2,325.7,-0.8,1.8,2470.904,13.29,0.032,278.9
2022-06-15T09:25:03,42.805,6.029,-0.02,0.007,-0.01,107.0,105.0,102.0,13.4,1505.2,322.5,-0.8,1.8,2470.887,13.29,0.021,289.3
2022-06-15T09:28:03,42.805,6.029,-0.008,0.005,-0.031,106.0,106.0,102.0,13.4,1505.2,324.1,-0.8,1.8,2470.909,13.29,0.009,302.0
2022-06-15T09:31:03,42.805,6.029,-0.014,0.006,-0.017,105.0,105.0,102.0,13.4,1505.2,324.6,-0.8,1.8,2470.915,13.29,0.015,293.2
2022-06-15T09:34:03,42.805,6.029,-0.01,-0.016,-0.015,106.0,104.0,103.0,13.4,1505.2,327.7,-0.8,1.8,2470.864,13.29,0.018,212.0
2022-06-15T09:37:03,42.805,6.029,-0.005,-0.001,-0.031,105.0,106.0,102.0,13.3,1505.2,332.9,-0.8,1.8,2470.87,13.29,0.005,258.7
2022-06-15T09:40:03,42.805,6.029,-0.024,-0.011,-0.02,105.0,105.0,103.0,13.3,1505.2,333.6,-0.8,1.9,2470.897,13.29,0.026,245.4
2022-06-15T09:43:03,42.805,6.029,-0.002,-0.004,-0.004,106.0,105.0,102.0,13.4,1505.2,322.2,-0.8,1.8,2470.832,13.29,0.004,206.6
2022-06-15T09:46:03,42.805,6.029,-0.028,-0.004,-0.002,105.0,104.0,103.0,13.3,1505.2,326.3,-0.8,1.8,2470.845,13.29,0.028,261.9
2022-06-15T09:49:03,42.805,6.029,-0.007,-0.008,-0.007,104.0,104.0,103.0,13.4,1505.2,322.6,-0.7,1.8,2470.837,13.29,0.01,221.2
2022-06-15T09:52:03,42.805,6.029,-0.014,-0.008,-0.044,107.0,104.0,103.0,13.4,1505.2,320.6,-0.8,1.8,2470.892,13.29,0.016,240.3
2022-06-15T09:55:03,42.805,6.029,-0.011,0.004,-0.012,104.0,104.0,101.0,13.4,1505.2,326.1,-0.7,1.8,2470.856,13.29,0.011,290.0
2022-06-15T09:58:03,42.805,6.029,-0.004,0.001,-0.026,104.0,103.0,101.0,13.4,1505.2,324.7,-0.7,1.9,2470.835,13.29,0.004,284.0
2022-06-15T10:04:03,42.805,6.029,-0.042,0.0,-0.01,105.0,104.0,102.0,13.3,1505.2,327.4,-0.7,1.8,2470.876,13.29,0.042,270.0
2022-06-15T10:07:03,42.805,6.029,-0.007,-0.023,-0.03,103.0,104.0,101.0,13.3,1505.2,324.6,-0.7,1.8,2470.875,13.29,0.024,196.9
2022-06-15T10:10:03,42.805,6.029,-0.014,0.001,-0.029,105.0,102.0,102.0,13.4,1505.2,323.3,-0.8,1.8,2470.841,13.29,0.014,274.1
2022-06-15T10:13:03,42.805,6.029,-0.014,-0.014,-0.013,104.0,103.0,101.0,13.3,1505.2,329.1,-0.8,1.8,2470.871,13.29,0.019,225.0
2022-06-15T10:16:03,42.805,6.029,-0.004,0.0,-0.003,104.0,104.0,102.0,13.4,1505.2,332.9,-0.7,1.8,2470.853,13.29,0.004,270.0
2022-06-15T10:19:03,42.805,6.029,-0.013,0.011,-0.029,105.0,105.0,102.0,13.4,1505.2,331.4,-0.8,1.8,2470.853,13.29,0.017,310.2
2022-06-15T10:22:03,42.805,6.029,-0.005,0.002,-0.018,105.0,105.0,102.0,13.3,1505.2,324.4,-0.8,1.8,2470.858,13.29,0.005,291.8
2022-06-15T10:25:03,42.805,6.029,-0.011,-0.006,-0.002,104.0,106.0,102.0,13.4,1505.2,321.1,-0.7,1.8,2470.819,13.29,0.012,241.4
2022-06-15T10:28:03,42.805,6.029,-0.003,0.0,-0.046,104.0,104.0,102.0,13.4,1505.2,327.9,-0.8,1.8,2470.811,13.29,0.003,270.0
2022-06-15T10:31:03,42.805,6.029,-0.016,0.015,-0.02,105.0,103.0,101.0,13.4,1505.2,327.4,-0.8,1.8,2470.853,13.29,0.021,313.1
2022-06-15T10:34:03,42.805,6.029,-0.012,0.014,-0.023,106.0,106.0,102.0,13.3,1505.2,321.6,-0.7,1.8,2470.814,13.29,0.018,319.4
2022-06-15T10:37:03,42.805,6.029,-0.019,-0.014,-0.041,105.0,104.0,103.0,13.4,1505.2,323.4,-0.8,1.9,2470.837,13.29,0.023,233.6
2022-06-15T10:40:03,42.805,6.029,-0.012,-0.001,-0.01,105.0,106.0,103.0,13.3,1505.2,326.0,-0.7,1.8,2470.85,13.29,0.012,265.2
2022-06-15T10:43:03,42.805,6.029,-0.016,-0.012,-0.014,105.0,105.0,103.0,13.4,1505.2,323.7,-0.8,1.8,2470.764,13.29,0.02,233.1
2022-06-15T10:46:03,42.805,6.029,-0.006,-0.015,-0.028,105.0,104.0,103.0,13.3,1505.2,331.5,-0.8,1.8,2470.808,13.29,0.016,201.8
2022-06-15T10:49:03,42.805,6.029,-0.012,0.002,-0.046,107.0,104.0,104.0,13.4,1505.2,326.9,-0.7,1.8,2470.784,13.29,0.012,279.5
2022-06-15T10:52:03,42.805,6.029,-0.015,-0.013,-0.02,107.0,107.0,102.0,13.4,1505.2,328.0,-0.8,1.8,2470.839,13.29,0.019,229.1